Location: Carrer del Canonge
(41.4901°N, 2.2931°E)
Time: 13:26:05
(UTC+00:00)

ISS - Pass Details

Date: 25 November 2020
Orbit: 418 x 419 km, 51.6° (Epoch: 18 January)

Event Time Altitude Azimuth Distance (km) Brightness Sun altitude
Rises 17:44:29 0° 269° (W) 2,362 1.7 -14.9°
Reaches altitude 10° 17:46:51 10° 285° (WNW) 1,499 0.0 -15.3°
Maximum altitude 17:49:37 23° 340° (NNW) 938 -2.0 -15.8°
Enters shadow 17:50:58 18° 15° (NNE) 1,096 -1.9 -16.0°
